カタログに戻る

OPS 9454

運用中軍事MEO
NORAD 10941·PAYLOAD·🇺🇸 United States

打ち上げ Jun 10, 1978 から Cape Canaveral Space Force Station

Loading…

次のパス (今後24時間)

TLE

最新Source: Mike McCants

元期: Sep 15, 2026, 18:04 UTC

1 10941U 78058A   26258.75332926  .00000000  00000-0  00000-0 0    06
2 10941  10.6700  17.1086 1501201  67.3268 307.8434  1.00107171  4580

AllMySatでOPS 9454をリアルタイム追跡

Download on the App Store